Weather in Sialkot

Pakistan     32°31′25″N   74°33′06″E
temp.,
°C
wind,
m/s
gust,
m/s
humid.,
%
clouds,
%
prec.,
mm/h
press.,
hPa
HPBL,
m
8 may, sat
sat823:00+25ne36425 0.1 1008110
02:00+24ne344785 0.0 100870
05:00+23ene22528 0.1 100834
08:00+29se22322 0.0 1010542
11:00+36sw22230 0.0 10091988
14:00+36w3420100 0.0 10063280
17:00+35wnw442285 0.2 10042213
20:00+30ne34301 0.1 100550
9 may, sun
sun923:00+28ene33372 0.4 100535
02:00+25ese224482 0.7 100519
05:00+24ne355066 0.8 100676
08:00+31ene352935 0.0 1007481
11:00+37e1220100 0.3 10062199
14:00+39nw361643 0.0 10024202
17:00+32ne8102884 0.1 1002515
20:00+27ese41045100 0.4 1004554
10 may, mon
mon1023:00+26se3948100 0.4 1004439
02:00+24ene3655100 0.3 1004165
05:00+24ne3451100 0.7 100475
08:00+28s234192 1.0 1006403
11:00+35ese212489 1.1 10041264
14:00+39s121799 0.0 10012373
17:00+39s13165 0.0 9983347
20:00+34e22221 0.0 99917
11 may, tue
tue1123:00+31ne342826 0.0 99955
02:00+27ese114189 0.4 100013
05:00+26ene344011 0.5 100070
08:00+33e46255 0.0 1002588
11:00+39sse44175 0.0 10012061
14:00+42s23130 0.0 9973605
17:00+41nnw13120 0.0 9944092
20:00+29ne91730100 0.0 997433
12 may, wed
wed1223:00+27ne81244100 0.7 1001382
02:00+26ene71445100 0.1 999387
05:00+26ene1143100 0.2 99915
08:00+26nne3447100 1.1 1002184
11:00+29nne4540100 1.9 1003393
14:00+26ene81050100 0.2 1002482
17:00+29se8840100 0.2 10011356
20:00+24ese41058100 0.0 1000421